Simultaneous Nadir Overpasses (SNOs) Predictions

Prediction of SNOs over PacNW region [( 10.00, 139.50) to ( 22.70, 165.60)] between AQUA and NPP Satellites:

Table of predicted SNOs over PacNW region for the next 30.0 days since TLE Epoch: 12/5/2015
Index Date (AQUA) Time (AQUA) AQUA Lat,Lon Date (NPP) Time (NPP) NPP Lat,Lon Distance(km) Time Diff (sec)
1 12/08/2015 02:42:06 22.11, 159.99 12/08/2015 02:38:46 21.82, 158.63 143.43 200
2 12/13/2015 15:09:51 22.63, 159.83 12/13/2015 15:13:20 23.65, 157.29 282.94 209
3 12/16/2015 03:30:19 17.76, 148.64 12/16/2015 03:28:11 17.41, 147.01 177.37 128
4 12/24/2015 02:42:06 22.39, 159.95 12/24/2015 02:38:41 22.08, 158.56 147.01 205
5 12/29/2015 15:09:42 22.64, 159.87 12/29/2015 15:13:11 23.52, 157.26 285.01 209
6 01/01/2016 03:30:10 17.83, 148.68 01/01/2016 03:28:01 17.47, 146.99 182.71 129
